RH
42 44 47 57 59 55 54 53 52 43 40 39 37 35 36 32 8 8 9 9 9 8 7 6 6 6 7 7 7 7 7 7 8 9 10 12 12 12 13 14 15 16 16 15 14 14 13 13 13
41 40 42 45 50 55 62 59 55 48 41 40 40 37 37 34 9 7 10 9 9 8 7 6 6 7 7 7 7 7 7 8 9 11 12 14 14 13 13 13 14 15 15 14 13 13 13 12 10
46 49 47 44 43 43 61 57 57 51 45 43 40 37 40 33 10 7 10 9 8 7 6 6 7 7 7 7 7 7 8 8 9 9 12 14 14 13 11 11 11 12 13 13 14 14 13 11 8
57 52 53 54 49 45 46 55 57 53 49 47 45 43 43 30 8 8 10 9 8 7 6 6 7 7 7 8 8 8 8 8 8 10 14 16 16 14 13 12 10 10 10 10 12 13 14 12 8
60 56 57 53 52 57 48 46 53 54 49 49 49 48 46 25 9 8 10 9 7 6 6 7 8 8 8 8 8 8 8 8 9 10 16 17 14 11 9 6 4 4 6 8 10 11 13 13 11
54 55 54 48 51 56 57 54 50 51 50 51 50 48 53 21 8 9 10 8 7 6 7 7 8 8 8 9 9 9 9 8 8 13 16 12 10 7 6 4 2 2 2 5 9 11 11 13 13
48 52 50 51 53 58 63 59 56 55 55 54 52 52 55 18 9 10 10 7 6 6 7 8 8 8 9 9 9 9 8 8 12 14 15 12 8 7 5 3 2 2 2 2 4 9 11 8 9
50 52 55 52 53 56 61 61 59 60 58 60 52 54 53 12 9 10 9 7 6 6 7 8 8 9 9 9 9 8 8 10 11 12 14 11 8 7 4 3 2 2 2 2 2 6 12 10 8
27 27 44 53 52 55 60 63 61 57 60 56 52 62 50 12 10 10 8 6 6 7 8 8 8 9 9 9 8 8 8 10 9 10 14 10 8 5 4 3 2 2 2 1 2 6 12 12 10
17 17 24 52 57 57 64 66 65 61 58 58 50 67 46 10 10 10 7 6 7 8 8 8 9 9 10 9 8 8 11 10 10 10 14 11 8 5 4 3 2 2 1 2 3 7 11 11 10
15 16 18 26 46 55 60 69 70 62 58 54 48 68 46 9 10 10 7 7 8 8 8 9 9 10 10 9 8 8 10 9 10 9 12 10 8 4 4 3 3 2 2 2 6 10 10 10 9
12 15 16 16 33 43 59 72 74 66 53 54 44 66 47 9 10 10 7 7 8 8 8 10 10 10 10 9 9 9 10 8 9 8 9 10 9 5 4 3 3 3 3 3 4 6 6 4 5
12 13 13 17 21 26 50 74 73 66 62 56 43 63 50 10 11 10 8 9 8 8 8 9 10 10 10 10 9 9 10 8 9 7 8 8 8 7 4 4 4 4 4 4 4 4 5 6 7
9 12 13 18 21 20 40 64 70 62 63 52 40 59 52 11 12 10 9 9 8 8 8 10 10 10 10 10 9 8 8 8 9 7 7 8 9 8 3 5 4 5 5 6 6 7 7 8 9
7 12 17 20 21 20 30 52 51 59 58 40 37 55 54 13 12 11 8 8 8 8 10 11 11 11 11 10 9 6 5 7 7 7 8 9 9 8 2 5 5 5 6 7 8 8 9 10 12
6 11 17 18 21 20 24 35 30 48 47 35 34 52 50 17 12 12 10 9 9 10 11 11 11 11 11 11 10 8 5 6 6 7 9 10 10 9 4 3 7 6 7 7 8 9 10 11 11
6 9 16 18 19 19 18 22 33 43 34 34 34 44 48 20 13 13 12 10 10 12 12 12 12 12 12 11 10 8 5 6 6 7 11 12 14 13 6 2 6 8 7 9 9 10 11 12 12
6 8 17 18 19 20 18 13 25 31 22 32 30 45 44 24 14 13 14 13 13 13 13 13 12 12 12 11 9 8 5 5 6 7 12 12 16 13 6 3 3 9 10 11 12 11 11 12 13
8 10 17 20 23 23 18 15 18 19 24 31 29 45 41 23 15 13 13 14 14 13 13 13 13 12 11 10 8 6 5 5 6 8 13 13 17 12 7 3 2 5 10 9 9 8 11 13 16
20 12 15 22 29 25 19 16 15 15 23 27 27 36 37 25 15 13 12 13 13 13 13 13 12 12 10 9 7 5 5 5 6 12 15 15 16 10 5 3 2 3 4 6 6 8 13 16 19
15 20 18 28 32 28 22 17 14 14 18 19 24 34 33 23 17 15 13 12 12 11 12 12 11 9 9 8 6 4 5 6 9 18 17 17 11 5 3 3 3 4 6 8 12 16 17 20 22
21 22 29 35 38 32 25 19 15 14 14 13 18 29 28 21 16 16 16 14 13 12 10 9 8 8 8 6 5 5 6 9 19 19 18 13 6 4 4 4 6 8 14 23 29 30 27 27 25
32 38 33 38 36 33 27 22 17 14 13 13 17 27 26 19 16 15 16 15 14 12 11 9 8 7 6 5 6 7 12 22 21 18 15 9 4 4 6 8 13 20 30 35 33 30 27 27 25
47 44 44 42 40 36 28 24 20 16 15 14 16 22 18 16 15 14 14 13 12 11 10 8 7 6 6 6 9 16 24 25 24 21 13 6 5 6 8 12 23 32 35 32 28 26 26 24 23
50 48 46 46 41 33 29 25 21 18 16 17 17 16 15 13 12 11 10 9 9 8 8 6 6 6 7 12 24 29 24 24 26 22 12 6 5 7 9 14 23 27 29 30 29 26 24 23 24
52 46 44 40 37 34 33 29 24 21 20 18 17 15 13 10 9 9 8 7 7 6 6 6 7 12 22 30 25 21 25 24 21 17 8 6 6 8 10 11 18 23 25 27 26 24 21 21 24
46 40 39 38 37 35 33 31 28 23 18 16 13 12 10 9 8 7 7 7 7 7 9 14 22 28 26 20 22 23 24 18 9 6 7 6 8 10 10 9 11 17 21 23 24 22 22 25 43
33 34 33 34 32 29 26 24 20 16 14 13 12 11 11 12 11 11 12 13 15 19 24 27 25 21 21 22 24 30 24 9 7 7 7 8 10 12 16 18 18 20 21 22 23 22 23 35 68
27 27 24 23 23 20 19 17 15 15 15 15 15 15 15 15 16 18 21 23 25 25 23 22 22 23 25 28 31 27 14 8 7 7 7 9 10 11 13 14 16 18 20 22 22 22 27 54 81
22 22 20 18 17 18 17 16 16 16 16 16 16 17 18 20 22 24 23 22 22 22 22 22 24 26 29 30 22 10 6 6 7 8 8 10 11 12 14 16 18 20 21 21 21 31 67 84 77
Wind_Speed
40 36 33 29 25 20 16 13 13 12 14 15 15 14 15 13 12 10 9 8 7 4 2 1 1 3 5 7 9 11 14 16 17 18 21 22 22 21 21 20 19 19 19 19 20 20 20 20 20
44 42 39 35 30 23 19 17 16 15 18 18 17 16 16 14 14 12 12 10 8 6 4 2 2 4 6 8 11 13 15 17 19 22 27 27 25 24 22 21 21 21 21 21 21 21 21 21 21
48 45 43 42 35 26 25 20 18 18 19 20 20 19 17 14 15 14 13 12 9 7 5 3 4 6 8 10 12 15 16 19 22 24 30 29 25 22 22 23 23 24 24 25 25 25 25 24 24
52 51 49 45 38 30 27 24 21 21 22 22 22 21 17 14 15 14 14 13 10 8 6 5 6 8 9 11 13 15 17 20 24 27 32 29 25 24 26 27 28 28 28 28 29 28 28 28 27
56 54 53 49 40 35 31 28 25 24 25 24 24 21 18 15 16 15 15 14 11 9 8 7 7 9 11 13 15 16 19 21 25 30 33 27 25 28 31 32 34 34 33 32 32 32 32 31 30
63 59 58 53 42 38 34 31 28 28 28 27 25 23 19 17 17 16 16 14 12 11 9 8 8 10 12 14 16 19 21 24 27 34 29 26 29 32 36 38 38 37 37 36 36 36 36 35 33
69 65 62 55 46 46 35 32 30 29 28 27 25 22 20 18 18 17 17 15 14 12 10 10 11 12 13 15 18 20 22 24 29 31 28 30 34 38 39 37 38 40 40 39 39 39 39 37 35
71 70 66 60 52 50 41 35 32 30 30 26 27 22 20 20 19 18 18 17 15 14 12 12 12 14 15 17 20 21 23 25 29 33 31 32 36 39 38 39 41 40 40 40 39 40 38 35 32
71 69 66 64 55 47 42 38 35 33 30 29 26 23 22 21 20 20 20 18 17 16 14 14 14 16 16 18 21 22 23 26 30 34 32 34 38 39 38 42 41 40 40 39 36 34 30 28 27
71 69 63 63 55 52 42 41 37 36 33 30 26 25 23 22 22 21 21 21 19 18 16 16 16 17 17 19 21 22 23 26 31 34 32 35 38 38 39 39 37 36 34 26 21 21 20 21 23
71 69 64 65 60 52 44 43 37 38 35 32 28 26 24 24 23 23 22 22 21 18 18 18 17 17 19 21 22 22 24 27 31 33 31 35 38 37 38 36 35 33 26 16 10 11 14 19 23
72 69 68 66 52 48 44 45 39 38 36 30 28 27 24 25 25 24 24 23 22 20 20 20 18 19 21 22 23 23 25 27 30 33 33 35 37 36 35 34 31 28 22 16 12 12 12 8 8
75 71 68 59 53 50 46 43 44 41 37 34 30 29 25 26 26 26 25 24 24 22 22 21 20 21 22 23 24 25 26 28 31 35 36 35 36 35 34 32 28 25 20 15 11 8 8 8 8
75 73 67 58 53 50 47 44 42 41 39 35 32 30 27 27 27 27 26 26 25 24 24 23 22 23 24 26 27 28 29 31 32 36 39 36 34 34 34 31 28 23 21 15 14 12 12 12 12
79 72 66 58 53 51 49 46 46 39 37 35 32 31 27 29 29 27 27 27 27 27 25 24 24 26 27 29 29 30 32 33 34 37 40 38 34 33 34 31 28 25 21 19 16 15 15 16 16
79 69 65 59 54 51 49 46 44 40 37 34 32 31 29 30 30 29 28 28 29 28 27 26 28 30 31 31 32 32 34 35 36 39 41 39 34 34 35 32 30 27 25 23 22 21 20 20 20
76 69 65 60 55 53 51 47 43 40 37 35 32 32 31 30 31 31 30 30 30 30 30 30 31 32 34 34 34 36 36 37 38 41 43 41 36 36 36 33 33 31 28 26 26 26 26 25 25
76 69 61 61 55 52 50 52 38 39 37 35 34 33 32 31 32 32 32 32 32 33 32 33 34 35 36 37 37 38 39 39 41 44 45 42 38 38 38 36 35 34 31 30 30 28 29 31 30
63 58 61 59 53 49 48 46 41 40 39 37 35 34 32 32 32 34 35 35 35 35 36 36 37 38 38 39 40 40 41 42 44 47 48 43 40 40 41 40 37 38 36 35 33 32 32 33 32
56 62 63 50 45 47 46 43 42 41 40 38 36 34 32 32 33 35 36 36 37 37 38 39 39 39 40 41 42 43 43 45 47 48 49 43 41 42 42 42 39 38 38 37 34 33 32 33 33
56 51 51 44 42 44 43 43 43 42 40 38 35 33 32 32 33 34 35 37 38 38 40 40 41 41 42 43 44 44 46 48 50 51 46 44 44 44 44 43 39 38 38 36 34 33 33 33 34
48 49 45 42 41 42 43 43 42 42 40 36 34 32 32 33 34 33 35 37 38 40 41 41 42 43 44 45 46 47 48 50 52 49 45 45 45 46 45 42 39 37 37 37 36 34 32 33 34
44 42 42 42 42 41 41 40 43 40 37 33 33 33 33 32 33 34 36 38 39 41 42 43 44 45 46 47 48 49 50 52 50 47 47 47 46 46 44 40 37 37 37 37 37 35 34 35 36
39 39 38 38 38 37 37 36 36 34 31 32 32 32 32 32 33 35 36 38 40 42 43 44 45 46 48 49 49 50 52 51 50 50 50 48 47 45 42 39 38 38 38 37 38 38 38 39 40
37 37 36 34 35 35 32 32 25 27 27 28 29 30 30 31 33 35 36 38 40 42 43 45 46 48 50 50 50 51 52 52 52 52 51 49 48 44 41 40 39 40 39 40 42 43 43 43 44
34 33 31 31 30 28 25 25 22 22 24 26 27 28 29 32 34 36 38 39 41 43 45 47 49 50 50 51 52 53 53 53 53 52 50 50 47 44 41 41 41 41 43 44 46 47 46 47 48
29 25 24 23 22 19 20 20 22 22 23 25 26 29 31 33 35 37 39 42 44 46 49 50 50 50 51 52 52 52 53 53 52 50 51 50 46 43 42 43 44 46 47 48 50 50 50 51 53
23 20 19 17 16 15 16 18 20 21 22 24 27 30 33 36 39 41 44 46 48 49 50 51 51 51 52 52 52 53 53 52 51 52 51 48 46 44 44 45 46 48 50 52 54 55 55 55 57
20 18 15 15 13 13 14 17 19 21 24 28 31 35 38 41 43 45 46 48 49 50 51 51 51 52 52 53 54 55 54 53 54 53 50 47 47 47 47 48 50 52 54 56 58 59 59 60 61
19 16 14 12 13 15 17 21 23 27 30 34 37 40 42 44 45 46 47 47 48 48 49 50 52 54 55 56 55 55 55 54 53 51 49 48 49 49 49 51 52 55 57 60 61 63 64 64 64
Wind_Direction
234 236 238 237 236 235 239 247 262 276 287 297 307 312 299 290 258 253 243 228 224 223 223 266 346 359 356 357 352 351 353 351 351 352 347 341 334 329 325 320 313 307 303 299 295 293 292 292 291
234 237 238 240 238 237 237 243 257 271 283 293 301 307 297 282 253 248 242 236 229 229 235 255 310 333 340 341 341 346 346 346 347 351 350 342 334 329 325 322 319 313 309 305 299 295 295 293 290
234 237 238 239 238 236 241 243 254 269 279 287 296 301 290 274 246 244 242 236 232 235 246 270 303 319 327 330 337 340 341 342 341 339 341 338 333 331 328 324 321 317 312 307 302 298 297 294 294
233 236 240 240 240 237 239 247 253 263 273 283 293 296 281 262 241 240 237 232 232 238 251 273 299 311 317 326 334 337 335 337 336 337 335 333 332 331 328 324 320 315 309 302 297 295 293 291 292
235 236 239 241 240 240 242 246 252 261 270 278 286 288 274 254 237 237 235 232 231 236 248 267 292 305 313 326 330 329 333 331 332 332 333 333 335 333 328 324 318 310 301 293 288 286 285 286 287
236 237 239 240 241 244 242 245 251 260 268 275 282 278 264 250 237 235 234 231 231 237 249 269 287 298 310 317 324 326 329 330 331 330 333 336 334 333 329 324 317 310 302 294 287 283 281 281 284
234 238 240 242 240 243 243 245 249 256 264 270 278 270 259 243 236 233 232 231 235 241 252 268 282 294 307 316 321 324 325 329 331 332 332 333 333 333 330 326 320 314 308 298 286 279 279 279 281
232 234 235 236 236 241 241 242 247 254 260 268 276 262 254 241 234 231 230 231 236 242 252 265 278 293 305 316 318 323 322 328 333 332 330 330 331 330 331 326 321 316 309 300 285 276 277 280 283
229 232 233 235 235 238 240 243 246 254 257 265 269 251 247 238 232 228 228 232 235 243 253 264 279 292 305 312 315 320 320 326 328 330 329 330 332 333 331 327 324 320 315 301 283 278 282 286 285
227 229 231 233 235 237 236 240 243 248 254 260 262 246 242 234 230 228 229 232 236 242 253 265 279 290 303 308 314 316 318 326 328 327 327 329 333 335 330 327 329 328 328 314 300 291 289 288 289
224 227 228 231 230 237 235 237 238 246 250 256 255 243 242 234 229 229 231 236 239 247 256 267 278 291 299 308 312 311 314 321 326 326 326 329 334 334 330 330 336 338 339 358 345 310 297 294 292
221 224 226 228 227 229 228 233 237 243 247 256 252 241 242 234 231 230 232 236 244 251 260 271 282 291 299 306 307 306 309 319 323 325 325 329 331 331 327 329 335 337 343 353 347 324 311 305 297
218 222 226 226 224 225 227 228 234 241 244 251 248 240 243 236 234 232 235 239 246 253 262 272 282 289 297 301 301 301 304 312 319 322 322 325 326 324 321 322 329 335 335 338 341 337 322 307 304
217 218 222 222 220 222 225 228 234 238 244 247 244 239 244 238 236 237 240 244 250 257 264 272 281 289 294 297 297 298 301 303 312 317 319 323 321 319 315 313 317 323 324 327 326 322 316 310 306
215 217 219 219 217 219 223 226 232 235 240 241 239 239 243 241 239 239 244 249 254 259 265 272 280 286 290 294 296 300 300 300 307 312 316 320 316 313 312 302 305 307 310 309 309 306 302 300 300
213 215 217 216 215 216 222 225 230 233 237 236 235 237 241 242 242 242 246 251 257 262 267 275 280 284 289 292 294 298 298 298 301 306 312 315 308 308 312 295 293 294 295 295 297 301 303 302 302
211 213 214 215 215 216 219 222 223 228 233 232 234 237 242 243 243 245 249 254 259 265 270 275 280 284 287 290 293 295 296 296 299 303 309 312 305 303 304 298 284 285 285 288 288 291 293 292 295
207 209 214 215 212 214 218 226 222 228 230 230 233 237 242 245 246 248 252 256 261 266 271 275 279 282 286 289 292 294 296 295 297 300 307 308 303 298 300 299 283 278 279 283 288 290 293 295 296
206 207 212 212 210 212 219 224 222 226 228 231 235 239 245 247 248 250 254 258 263 268 272 275 278 282 286 289 291 293 294 294 295 299 306 303 299 295 297 296 288 275 273 280 285 289 290 292 293
192 206 210 209 208 212 217 221 224 227 229 232 236 242 248 251 251 254 258 262 266 270 273 276 280 283 286 288 290 293 292 292 295 301 303 299 296 295 297 296 288 279 272 272 276 282 286 288 291
193 200 205 205 207 212 216 221 224 228 230 233 238 244 251 255 256 258 263 266 270 273 275 279 282 284 286 288 290 291 290 293 298 301 299 296 297 299 299 295 287 279 271 270 272 276 282 286 291
193 197 194 197 204 211 215 221 225 230 234 236 240 247 253 256 259 262 265 269 272 274 277 280 282 284 286 288 289 289 292 295 298 300 295 297 298 298 296 291 283 277 274 274 274 277 282 286 289
184 191 194 196 203 211 215 221 229 232 237 242 246 249 256 259 261 265 267 271 274 276 278 280 281 284 286 287 288 292 294 297 299 296 298 298 298 298 294 287 282 279 278 279 281 282 283 286 289
181 188 192 198 204 212 216 224 230 236 242 245 250 254 259 262 264 266 268 270 272 274 277 280 282 284 285 288 290 293 296 298 296 297 298 298 298 296 289 282 280 280 281 281 281 283 284 286 287
178 184 190 197 204 212 218 227 229 239 244 250 254 259 263 265 266 267 269 271 274 276 279 280 281 283 286 289 293 296 296 294 295 298 297 298 298 293 286 282 282 284 283 282 283 285 286 288 289
173 182 192 201 208 214 223 234 239 245 249 254 260 263 266 266 267 269 272 274 275 276 278 280 281 285 289 293 295 294 293 295 297 297 297 297 295 289 283 281 281 282 283 283 285 287 288 289 289
166 176 190 201 210 219 230 239 245 247 252 256 258 262 265 267 269 270 272 273 274 276 278 281 285 290 292 292 291 295 296 296 296 295 295 297 294 289 284 282 281 283 285 287 288 287 287 288 289
158 171 181 192 206 216 227 236 245 249 251 254 257 259 261 263 265 267 270 272 275 279 283 287 290 291 289 291 293 294 294 294 294 294 295 293 292 289 287 286 286 286 286 286 286 287 289 289 288
152 164 182 195 205 216 226 234 240 246 251 253 256 258 262 264 267 271 275 279 282 286 288 288 287 288 290 291 293 294 294 295 295 296 294 290 290 289 288 286 286 286 287 288 288 289 288 287 286
149 162 178 198 213 221 231 238 243 248 253 258 261 264 269 272 276 280 283 285 285 285 284 285 287 290 291 292 292 293 294 294 294 293 291 290 289 288 287 287 287 287 287 286 286 286 286 286 286